[[{"header":{"parameterUnit":"m.s-1","parameterCategory":1,"la1":30.2991,"la2":30.254,"lo1":-89.0895,"lo2":-89.0444,"dy":0.0017,"dx":0.0017,"nx":28,"ny":28,"refTime":"2023-08-28T09:00:00:Z","depth":0,"parameterNumber":2,"parameterNumberName":"U-component_of_WINDS"},"data":[0,0,0,0,0,0,0,0,0,0,0,0,0,0,0,0,0,0,0,0,0,0,0,0,0,0,0,0,0,0,0,0,0,0,0,0,0,0,0,0,0,0,0,0,0,0,0,0,0,0,0,0,0,0,0,0,0,0,-0.7718,-0.772,0,-0.7887,-0.7889,-0.7891,-0.7947,-0.7946,-0.7945,-0.7945,-0.812,-0.8126,-0.8131,0,0,0,0,0,0,0,0,0,0,0,0,0,-0.7444,-0.7449,-0.7718,-0.772,-0.7722,-0.7887,-0.7889,-0.7891,-0.7947,-0.7946,-0.7945,-0.7944,-0.8119,-0.8125,-0.8131,0,0,0,0,0,0,0,0,0,0,0,0,0,-0.7583,-0.7451,-0.7717,-0.7769,-0.7776,-0.7886,-0.7889,-0.7892,-0.7947,-0.7946,-0.7945,-0.7944,-0.8117,-0.8124,-0.8132,-0.8204,0,0,-0.8157,-0.816,0,0,0,0,0,0,0,0,-0.7575,-0.7593,-0.776,-0.7766,-0.7773,-0.7895,-0.7857,-0.7997,-0.7948,-0.7882,-0.7945,-0.7943,-0.8046,-0.806,-0.8094,-0.8212,-0.822,-0.8158,-0.8162,-0.8166,-0.8168,0,0,0,0,0,0,0,-0.7566,-0.7586,-0.7785,-0.7762,-0.777,-0.7785,-0.7804,-0.7884,-0.7969,-0.7888,-0.7892,-0.7911,-0.805,-0.8086,-0.8099,-0.8222,-0.8157,-0.8165,-0.817,-0.8173,-0.8408,-0.841,0,0,0,0,0,0,-0.7547,-0.7578,-0.7779,-0.779,-0.767,-0.7791,-0.7812,-0.7857,-0.7968,-0.7984,-0.7912,-0.7913,-0.8073,-0.8089,-0.8105,-0.8198,-0.8166,-0.8173,-0.8178,-0.8407,-0.8409,-0.841,0,0,0,0,0,0,-0.7541,-0.7564,-0.7773,-0.7685,-0.7713,-0.7797,-0.7847,-0.7861,-0.7898,-0.7986,-0.8002,-0.7934,-0.8073,-0.8094,-0.8179,-0.8205,-0.8177,-0.8184,-0.8405,-0.8407,-0.8409,-0.8382,0,0,0,0,0,0,-0.7533,-0.7562,-0.759,-0.7685,-0.7717,-0.7843,-0.7849,-0.7865,-0.7911,-0.7914,-0.8011,-0.8026,-0.8074,-0.8167,-0.8187,-0.8215,-0.8191,-0.8403,-0.8406,-0.8409,-0.8381,-0.8383,-0.8385,0,0,0,0,0,-0.7523,-0.7576,-0.7591,-0.7615,-0.7754,-0.7844,-0.7863,-0.7916,-0.7913,-0.7942,-0.7999,-0.8023,-0.8198,-0.8175,-0.8198,-0.8229,-0.8402,-0.8405,-0.8408,-0.8381,-0.8383,-0.8385,0,0,0,0,0,0,-0.7482,-0.7589,-0.7607,-0.7692,-0.7759,-0.7854,-0.7892,-0.7917,-0.7987,-0.7987,-0.8051,-0.8072,-0.8153,-0.8199,-0.8172,-0.8305,-0.8301,-0.8309,-0.8272,-0.8275,-0.8276,-0.8265,-0.8197,0,0,0,0,0,-0.7482,-0.7546,-0.7637,-0.7703,-0.7736,-0.7808,-0.7849,-0.7885,-0.7956,-0.7985,-0.8048,-0.8117,-0.8188,-0.8234,-0.8304,-0.8387,-0.841,-0.842,-0.8422,-0.8423,-0.843,-0.8478,-0.8484,-0.8421,-0.8421,-0.8421,0,0,-0.7485,-0.7552,-0.7588,-0.7697,-0.7753,-0.7818,-0.7831,-0.79,-0.795,-0.7996,-0.8081,-0.8129,-0.821,-0.8295,-0.8336,-0.8336,-0.8452,-0.8427,-0.8427,-0.8434,-0.8482,-0.8488,-0.8494,-0.8423,-0.8423,-0.8422,0,0,-0.7524,-0.758,-0.7642,-0.7697,-0.778,-0.7828,-0.7842,-0.7933,-0.7967,-0.8053,-0.8089,-0.8148,-0.8269,-0.8326,-0.837,-0.8429,-0.8454,-0.845,-0.846,-0.8507,-0.8512,-0.8517,-0.8539,-0.8546,-0.8456,-0.8456,-0.8456,0,-0.7517,-0.7617,-0.7671,-0.7738,-0.7785,-0.7828,-0.7892,-0.7943,-0.8045,-0.8077,-0.8076,-0.8228,-0.8285,-0.8385,-0.8399,-0.8433,-0.8453,-0.844,-0.8506,-0.8512,-0.8517,-0.854,-0.8548,-0.8455,-0.8455,-0.8455,-0.8455,0,-0.7605,-0.7674,-0.7714,-0.7811,-0.7862,-0.7927,-0.7991,-0.8037,-0.8067,-0.8115,-0.8201,-0.8272,-0.8357,-0.8383,-0.8413,-0.8486,-0.8484,-0.8494,-0.8492,-0.8521,-0.8544,-0.8553,-0.8453,-0.8454,-0.8454,-0.8454,0,0,-0.7626,-0.775,-0.7764,-0.7809,-0.7903,-0.7958,-0.8025,-0.8107,-0.8146,-0.8214,-0.8273,-0.8373,-0.8382,-0.8433,-0.847,-0.851,-0.8554,-0.8515,-0.8518,-0.8522,-0.8641,-0.8635,-0.8644,-0.857,-0.8572,-0.8573,-0.8635,0,-0.7678,-0.78,-0.7849,-0.7948,-0.8012,-0.8053,-0.8111,-0.8176,-0.8222,-0.8284,-0.8334,-0.8405,-0.8411,-0.8442,-0.8483,-0.854,-0.8579,-0.8536,-0.8627,-0.863,-0.8608,-0.8655,-0.8649,-0.8704,-0.8643,-0.8645,-0.8646,0,-0.7757,-0.7825,-0.793,-0.8016,-0.8045,-0.8097,-0.8177,-0.8235,-0.8309,-0.8339,-0.8394,-0.8429,-0.8502,-0.8492,-0.8594,-0.8563,-0.8603,-0.8636,-0.8639,-0.8652,-0.8641,-0.8671,-0.8723,-0.8732,-0.866,-0.8659,-0.8658,0,-0.7764,-0.7882,-0.796,-0.7996,-0.8099,-0.8134,-0.8179,-0.8251,-0.8298,-0.8367,-0.8398,-0.8475,-0.8518,-0.8577,-0.8631,-0.8619,-0.8728,-0.8723,-0.8757,-0.8756,-0.878,-0.8779,-0.8841,-0.8801,-0.8801,-0.8801,-0.8801,0,-0.7819,-0.7882,-0.7964,-0.8012,-0.8084,-0.814,-0.821,-0.8257,-0.8321,-0.838,-0.8419,-0.8473,-0.8541,-0.8604,-0.8647,-0.8725,-0.8744,-0.8771,-0.8783,-0.877,-0.8766,-0.8799,-0.8797,-0.8803,-0.8803,-0.8802,-0.8802,0,-0.784,-0.7898,-0.7986,-0.8075,-0.8098,-0.8147,-0.8224,-0.8273,-0.8319,-0.8393,-0.8414,-0.8487,-0.8564,-0.8623,-0.8722,-0.8751,-0.8835,-0.8846,-0.881,-0.8816,-0.8847,-0.8844,-0.8935,-0.895,-0.8897,-0.8898,-0.8898,0,-0.7873,-0.7923,-0.8016,-0.8058,-0.8102,-0.8168,-0.8216,-0.8272,-0.832,-0.8407,-0.8446,-0.8524,-0.8591,-0.8711,-0.8774,-0.885,-0.8865,-0.8891,-0.8877,-0.8862,-0.8868,-0.8865,-0.8871,-0.8894,-0.8894,-0.8894,-0.8894,0,-0.7926,-0.7952,-0.8018,-0.8094,-0.8149,-0.8212,-0.8275,-0.8307,-0.8375,-0.8427,-0.8505,-0.8556,-0.8657,-0.8735,-0.8818,-0.8865,-0.8892,-0.8898,-0.891,-0.8899,-0.8877,-0.8891,-0.8817,-0.8896,-0.8896,-0.8896,-0.8896,-0.8896,-0.7956,-0.8002,-0.8075,-0.8148,-0.8201,-0.8259,-0.831,-0.8362,-0.8427,-0.8514,-0.8543,-0.8623,-0.8696,-0.881,-0.8856,-0.8921,-0.8923,-0.894,-0.8945,-0.8949,-0.8948,-0.8864,-0.8936,-0.8936,-0.8936,-0.8936,-0.8936,0,-0.8013,-0.8062,-0.8127,-0.8215,-0.8272,-0.8289,-0.8361,-0.8408,-0.8478,-0.8543,-0.8607,-0.8697,-0.8772,-0.884,-0.8919,-0.8958,-0.8972,-0.8977,-0.8976,-0.8987,-0.8941,-0.8924,-0.8964,-0.8964,-0.8964,-0.8964,-0.8964,-0.8964,-0.805,-0.8129,-0.8162,-0.8268,-0.8317,-0.8396,-0.8435,-0.8489,-0.8541,-0.8639,-0.8702,-0.8745,-0.8812,-0.8896,-0.8966,-0.8984,-0.9013,-0.9015,-0.9036,-0.8993,-0.899,-0.8986,-0.8971,-0.902,-0.902,-0.9077,-0.9077,-0.9078]},{"header":{"parameterUnit":"m.s-1","parameterCategory":1,"la1":30.2991,"la2":30.254,"lo1":-89.0895,"lo2":-89.0444,"dy":0.0017,"dx":0.0017,"nx":28,"ny":28,"refTime":"2023-08-28T09:00:00:Z","depth":0,"parameterNumber":3,"parameterNumberName":"V-component_of_WINDS"},"data":[0,0,0,0,0,0,0,0,0,0,0,0,0,0,0,0,0,0,0,0,0,0,0,0,0,0,0,0,0,0,0,0,0,0,0,0,0,0,0,0,0,0,0,0,0,0,0,0,0,0,0,0,0,0,0,0,0,0,-4.3896,-4.3897,0,-4.4019,-4.402,-4.4022,-4.3984,-4.3982,-4.3979,-4.3977,-4.4096,-4.4102,-4.4107,0,0,0,0,0,0,0,0,0,0,0,0,0,-4.3623,-4.3628,-4.3896,-4.3898,-4.3899,-4.4019,-4.402,-4.4022,-4.3985,-4.3982,-4.3979,-4.3976,-4.4095,-4.4101,-4.4108,0,0,0,0,0,0,0,0,0,0,0,0,0,-4.3743,-4.363,-4.3896,-4.3895,-4.3896,-4.4018,-4.402,-4.4022,-4.3986,-4.3982,-4.3978,-4.3974,-4.4092,-4.4101,-4.4109,-4.4237,0,0,-4.4134,-4.4138,0,0,0,0,0,0,0,0,-4.3736,-4.3753,-4.3894,-4.3895,-4.3897,-4.3983,-4.3968,-4.4094,-4.3987,-4.3952,-4.3977,-4.3972,-4.4061,-4.4072,-4.4103,-4.4242,-4.4248,-4.4135,-4.414,-4.4144,-4.4146,0,0,0,0,0,0,0,-4.3728,-4.3748,-4.3944,-4.3896,-4.3898,-4.3887,-4.3899,-4.3992,-4.4026,-4.3954,-4.3952,-4.3967,-4.4061,-4.4095,-4.4106,-4.4249,-4.4135,-4.4142,-4.4147,-4.4151,-4.4499,-4.4503,0,0,0,0,0,0,-4.372,-4.3741,-4.394,-4.3948,-4.3806,-4.3895,-4.3909,-4.3959,-4.4025,-4.4032,-4.397,-4.3965,-4.4083,-4.4096,-4.411,-4.4264,-4.4144,-4.4151,-4.4156,-4.4495,-4.45,-4.4504,0,0,0,0,0,0,-4.3714,-4.3738,-4.3936,-4.3844,-4.3868,-4.3904,-4.396,-4.3963,-4.3997,-4.4037,-4.4043,-4.3999,-4.408,-4.4098,-4.4206,-4.4268,-4.4155,-4.4163,-4.449,-4.4496,-4.4502,-4.4574,0,0,0,0,0,0,-4.3706,-4.3736,-4.3787,-4.3846,-4.3873,-4.4032,-4.3964,-4.3968,-4.4012,-4.4007,-4.4066,-4.4072,-4.4079,-4.4194,-4.4214,-4.4277,-4.4169,-4.4484,-4.4493,-4.45,-4.4566,-4.4582,-4.4595,0,0,0,0,0,-4.3697,-4.38,-4.3789,-4.3814,-4.3938,-4.4036,-4.4051,-4.4059,-4.4018,-4.4068,-4.4093,-4.407,-4.4257,-4.4205,-4.4228,-4.4294,-4.448,-4.449,-4.45,-4.4559,-4.4578,-4.4595,0,0,0,0,0,0,-4.3745,-4.3808,-4.3796,-4.3923,-4.3975,-4.4029,-4.4093,-4.4079,-4.4142,-4.4133,-4.4138,-4.4152,-4.4262,-4.4289,-4.4229,-4.4421,-4.4363,-4.4377,-4.44,-4.4419,-4.4433,-4.4424,-4.4176,0,0,0,0,0,-4.3771,-4.3848,-4.3897,-4.4004,-4.4031,-4.4057,-4.41,-4.4102,-4.4154,-4.4175,-4.4209,-4.4259,-4.4329,-4.4375,-4.4442,-4.4569,-4.4581,-4.4626,-4.464,-4.4652,-4.4665,-4.4733,-4.4754,-4.4536,-4.4536,-4.4536,0,0,-4.3825,-4.3868,-4.3916,-4.4015,-4.4055,-4.4132,-4.4076,-4.4159,-4.4216,-4.4187,-4.4292,-4.4318,-4.4374,-4.4493,-4.4546,-4.4518,-4.4728,-4.4664,-4.4674,-4.468,-4.4745,-4.4766,-4.4784,-4.4542,-4.4541,-4.454,0,0,-4.3962,-4.4003,-4.4097,-4.4138,-4.4201,-4.4218,-4.424,-4.4297,-4.4314,-4.442,-4.44,-4.4465,-4.4587,-4.4628,-4.4664,-4.4817,-4.4797,-4.4838,-4.4914,-4.4981,-4.4998,-4.5014,-4.5068,-4.5087,-4.485,-4.485,-4.4851,0,-4.402,-4.4138,-4.4146,-4.4232,-4.4275,-4.4255,-4.4349,-4.4388,-4.4468,-4.4497,-4.4465,-4.4617,-4.4653,-4.478,-4.4817,-4.4848,-4.4872,-4.4831,-4.4996,-4.5011,-4.5025,-4.5077,-4.5097,-4.4855,-4.4854,-4.4854,-4.4854,0,-4.4206,-4.4287,-4.4355,-4.4435,-4.4486,-4.4575,-4.4595,-4.4645,-4.4642,-4.4662,-4.4769,-4.4812,-4.4887,-4.4917,-4.4914,-4.5044,-4.5025,-4.4994,-4.4935,-4.5051,-4.5099,-4.5119,-4.4862,-4.486,-4.4859,-4.4857,0,0,-4.4377,-4.4462,-4.4486,-4.4522,-4.4589,-4.4651,-4.4739,-4.4814,-4.4857,-4.4912,-4.4985,-4.5088,-4.506,-4.5102,-4.5103,-4.5162,-4.528,-4.5124,-4.5125,-4.5151,-4.5425,-4.5448,-4.5471,-4.5267,-4.5271,-4.5274,-4.542,0,-4.452,-4.4677,-4.4687,-4.4828,-4.4903,-4.4884,-4.496,-4.5008,-4.5029,-4.5094,-4.5115,-4.5188,-4.5146,-4.5171,-4.5229,-4.5253,-4.5335,-4.5243,-4.5333,-4.5337,-4.5321,-4.5497,-4.5521,-4.5657,-4.5439,-4.5443,-4.5445,0,-4.4708,-4.4772,-4.4921,-4.4978,-4.5009,-4.5078,-4.5148,-4.521,-4.5264,-4.5275,-4.5322,-4.5315,-4.5402,-4.5341,-4.5461,-4.5398,-4.5435,-4.5453,-4.5458,-4.5467,-4.5398,-4.551,-4.5701,-4.5722,-4.5475,-4.5473,-4.547,0,-4.4818,-4.4941,-4.5046,-4.5078,-4.5146,-4.5195,-4.5225,-4.5275,-4.532,-4.538,-4.5409,-4.5478,-4.5515,-4.5568,-4.5579,-4.5533,-4.5699,-4.5638,-4.5709,-4.5709,-4.5745,-4.5743,-4.5945,-4.5769,-4.5769,-4.5768,-4.5768,0,-4.4977,-4.5069,-4.5097,-4.5162,-4.5264,-4.5273,-4.5373,-4.5399,-4.5444,-4.5512,-4.5499,-4.5563,-4.5573,-4.5639,-4.5648,-4.5746,-4.5763,-4.5773,-4.5774,-4.5775,-4.5773,-4.5799,-4.579,-4.5774,-4.5773,-4.5772,-4.5771,0,-4.5117,-4.514,-4.5254,-4.531,-4.5326,-4.5399,-4.5445,-4.5507,-4.5526,-4.5612,-4.5633,-4.5662,-4.5739,-4.5755,-4.5845,-4.5851,-4.5968,-4.5959,-4.5951,-4.595,-4.602,-4.6014,-4.6246,-4.6277,-4.6081,-4.6082,-4.6084,0,-4.5218,-4.5288,-4.5352,-4.5398,-4.5432,-4.5505,-4.5552,-4.5563,-4.5611,-4.5677,-4.573,-4.5806,-4.5867,-4.599,-4.6018,-4.6086,-4.608,-4.6157,-4.609,-4.6088,-4.6081,-4.6077,-4.6084,-4.6169,-4.6171,-4.6173,-4.6175,0,-4.5393,-4.54,-4.5469,-4.5542,-4.5598,-4.5655,-4.5709,-4.5746,-4.5764,-4.5819,-4.5898,-4.5946,-4.6039,-4.6113,-4.6182,-4.6211,-4.6196,-4.6195,-4.6216,-4.6217,-4.6209,-4.6215,-4.5986,-4.619,-4.6189,-4.6187,-4.6187,-4.6186,-4.5516,-4.5578,-4.5634,-4.571,-4.5752,-4.5803,-4.5864,-4.5891,-4.5958,-4.6037,-4.6038,-4.6125,-4.6175,-4.6267,-4.63,-4.6366,-4.6342,-4.6371,-4.6378,-4.6386,-4.6392,-4.6198,-4.6378,-4.6378,-4.6377,-4.6377,-4.6377,0,-4.5691,-4.5726,-4.5796,-4.5873,-4.5933,-4.5916,-4.5974,-4.6025,-4.6102,-4.6152,-4.6213,-4.6304,-4.6376,-4.641,-4.6481,-4.6528,-4.6523,-4.6546,-4.6543,-4.655,-4.641,-4.6385,-4.6549,-4.6549,-4.6549,-4.6549,-4.6549,-4.6549,-4.5789,-4.5893,-4.5908,-4.6032,-4.6065,-4.6152,-4.6187,-4.6234,-4.6273,-4.6376,-4.6437,-4.646,-4.6503,-4.6577,-4.6642,-4.665,-4.6677,-4.6704,-4.6709,-4.6577,-4.656,-4.6543,-4.652,-4.671,-4.671,-4.6843,-4.6845,-4.6846]}]]